Weather History for Bloomington, IN

Change the Weather History Date:

Thursday, February 21, 2013

  Actual Average Record
Temperature  
Mean Temperature 24 °F 35 °F  
Max Temperature 33 °F 45 °F 64 °F (1997)
Min Temperature 15 °F 24 °F 6 °F (2008)
Degree Days  
Heating Degree Days 41 30  
Month to date heating degree days 702 690  
Since 1 July heating degree days 3746 3865  
Cooling Degree Days 0 0  
Month to date cooling degree days 0 0  
Year to date cooling degree days 0 0  
Moisture  
Dew Point 20 °F    
Average Humidity 71    
Maximum Humidity 88    
Minimum Humidity 54    
Precipitation  
Precipitation 0.30 in 0.09 in 1.90 in (2011)
Month to date precipitation 1.29 2.19  
Year to date precipitation 6.75 5.50  
Sea Level Pressure  
Sea Level Pressure 30.19 in    
Wind  
Wind Speed 10 mph (East)    
Max Wind Speed 23 mph    
Max Gust Speed 32 mph    
Visibility 7 miles    
Events Fog , Rain , Snow    
T = Trace of Precipitation, MM = Missing Value Source: NWS Daily Summary

Daily Weather History Graph

Daily Weather History Graph

Search for Another Location

Airport:

Trip Planner

Search our weather history database for the weather conditions in past years. The results will help you decide how hot, cold, wet, or windy it might be!

Date:

Astronomy

Feb. 21, 2013 Rise Set
Actual Time 7:29 AM EST 6:30 PM EST
Civil Twilight 7:02 AM EST 6:57 PM EST
Nautical Twilight 6:31 AM EST 7:28 PM EST
Astronomical Twilight 6:00 AM EST 7:59 PM EST
Moon 2:46 PM EST (2/21) 4:33 AM EST (2/21)
Length of Visible Light 11h 54m
Length of Day
11h 00m
Waxing Gibbous, 83% of the Moon is Illuminated
Feb 21
Waxing Gibbous
Feb 25
Full
Mar 4
Last Quarter
Mar 11
New
Mar 19
First Quarter

Hourly Weather History & Observations

Time (EST) Temp. Windchill Dew Point Humidity Pressure Visibility Wind Dir Wind Speed Gust Speed Precip Events Conditions
12:53 AM 18.0 °F - 12.9 °F 81% 30.33 in 10.0 mi Calm Calm - N/A   Clear
1:53 AM 19.9 °F 13.4 °F 12.9 °F 74% 30.33 in 10.0 mi ENE 4.6 mph - N/A   Clear
2:53 AM 19.9 °F 14.9 °F 12.9 °F 74% 30.32 in 10.0 mi ENE 3.5 mph - N/A   Clear
3:53 AM 18.0 °F 11.1 °F 12.0 °F 78% 30.31 in 10.0 mi NE 4.6 mph - N/A   Clear
4:53 AM 16.0 °F - 12.0 °F 84% 30.32 in 9.0 mi Calm Calm - N/A   Clear
5:53 AM 17.1 °F 11.7 °F 12.0 °F 81% 30.34 in 10.0 mi ENE 3.5 mph - N/A   Clear
6:53 AM 18.0 °F 9.8 °F 12.0 °F 78% 30.34 in 10.0 mi NE 5.8 mph - N/A   Clear
7:53 AM 18.0 °F 9.8 °F 12.9 °F 81% 30.33 in 10.0 mi ENE 5.8 mph - N/A   Clear
8:46 AM 19.4 °F 7.2 °F 14.0 °F 80% 30.31 in 10.0 mi East 11.5 mph - N/A   Mostly Cloudy
8:53 AM 19.9 °F 8.6 °F 14.0 °F 78% 30.35 in 10.0 mi East 10.4 mph - N/A   Mostly Cloudy
9:53 AM 21.0 °F 9.3 °F 15.1 °F 78% 30.32 in 10.0 mi East 11.5 mph 21.9 mph N/A   Overcast
10:53 AM 23.0 °F 14.7 °F 17.1 °F 78% 30.32 in 10.0 mi East 6.9 mph - N/A   Overcast
11:34 AM 24.8 °F 15.3 °F 17.6 °F 74% 30.26 in 10.0 mi East 9.2 mph - N/A   Mostly Cloudy
11:50 AM 26.6 °F 17.5 °F 17.6 °F 69% 30.26 in 10.0 mi East 9.2 mph - N/A   Partly Cloudy
11:53 AM 26.1 °F 15.6 °F 17.1 °F 69% 30.29 in 10.0 mi East 11.5 mph - N/A   Partly Cloudy
12:53 PM 28.9 °F 19.8 °F 18.0 °F 64% 30.23 in 10.0 mi ENE 10.4 mph - N/A   Clear
1:53 PM 32.0 °F 22.1 °F 19.0 °F 59% 30.17 in 10.0 mi ESE 13.8 mph 19.6 mph N/A   Clear
2:53 PM 32.0 °F 23.6 °F 18.0 °F 56% 30.14 in 10.0 mi East 10.4 mph - N/A   Clear
3:53 PM 32.0 °F 23.0 °F 19.0 °F 59% 30.14 in 10.0 mi ENE 11.5 mph 18.4 mph N/A   Overcast
4:53 PM 32.0 °F 24.8 °F 19.0 °F 59% 30.18 in 10.0 mi East 8.1 mph - N/A   Overcast
5:25 PM 30.2 °F 24.3 °F 21.2 °F 69% 30.15 in 1.8 mi East 5.8 mph - 0.00 in Snow Light Snow
5:44 PM 30.2 °F 24.3 °F 23.0 °F 75% 30.16 in 0.8 mi ESE 5.8 mph - 0.00 in Snow Light Snow
5:53 PM 30.0 °F 22.4 °F 23.0 °F 75% 30.19 in 0.8 mi ESE 8.1 mph - 0.00 in Snow Light Snow
6:28 PM 28.4 °F 20.4 °F 24.8 °F 86% 30.14 in 0.5 mi East 8.1 mph - 0.03 in Fog , Snow Snow
6:51 PM 28.4 °F 18.5 °F 24.8 °F 86% 30.11 in 0.5 mi East 11.5 mph - 0.07 in Fog , Snow Snow
6:53 PM 28.0 °F 17.5 °F 25.0 °F 88% 30.14 in 0.5 mi East 12.7 mph - 0.07 in Fog , Snow Snow
7:21 PM 28.4 °F 17.5 °F 24.8 °F 86% 30.08 in 1.0 mi East 13.8 mph - 0.08 in Snow Light Snow
7:30 PM 28.4 °F 17.5 °F 24.8 °F 86% 30.07 in 1.8 mi East 13.8 mph - 0.09 in Snow Light Snow
7:37 PM 28.4 °F 17.0 °F 24.8 °F 86% 30.06 in 2.0 mi East 15.0 mph 21.9 mph 0.09 in Snow Light Snow
7:53 PM 28.9 °F 17.3 °F 25.0 °F 85% 30.06 in 1.8 mi East 16.1 mph 25.3 mph 0.12 in Rain Light Freezing Rain
7:59 PM 28.4 °F 16.2 °F 24.8 °F 86% 30.03 in 3.0 mi East 17.3 mph 23.0 mph 0.01 in Rain Light Freezing Rain
8:15 PM 28.4 °F 15.8 °F 26.6 °F 93% 30.00 in 4.0 mi East 18.4 mph 26.5 mph 0.03 in Rain Light Freezing Rain
8:53 PM 30.0 °F 19.1 °F 26.1 °F 85% 30.01 in 5.0 mi ESE 15.0 mph 25.3 mph 0.06 in Rain Light Freezing Rain
9:53 PM 30.0 °F 19.5 °F 26.1 °F 85% 29.99 in 9.0 mi ESE 13.8 mph 23.0 mph 0.01 in Rain Light Freezing Rain
10:53 PM 30.0 °F 20.0 °F 26.1 °F 85% 29.99 in 7.0 mi ESE 12.7 mph 21.9 mph 0.02 in Rain Light Freezing Rain
11:53 PM 30.0 °F 18.7 °F 27.0 °F 88% 29.96 in 6.0 mi SE 16.1 mph 21.9 mph 0.02 in Rain Light Freezing Rain